Location: Newark
(45.9456°N, 15.4064°E)
Time: 03:29:27
(UTC+00:00)

SR - Pass Details

Date: 02 February 2020
Orbit: 575 x 881 km, 66.7° (Epoch: 17 February)

Event Time Altitude Azimuth Distance (km) Brightness Sun altitude
Rises 19:05:38 0° 205° (SSW) 3,413 ? -31.6°
Reaches altitude 10° 19:08:05 10° 204° (SSW) 2,503 ? -32.0°
Enters shadow 19:09:54 21° 202° (SSW) 1,848 ? -32.3°
Maximum altitude 19:13:56 76° 120° (ESE) 910 - -33.0°
Drops below altitude 10° 19:19:51 10° 36° (NE) 2,532 - -34.0°
Sets 19:22:20 0° 35° (NE) 3,456 - -34.5°
